Location: Bailleul
(50.3375°N, 2.8513°E)
Time: 09:19:09
(UTC+00:00)

Cosmos 1536 Rocket - Pass Details

Date: 16 June 2021
Orbit: 604 x 633 km, 82.5° (Epoch: 03 August)

Event Time Altitude Azimuth Distance (km) Brightness Sun altitude
Exits shadow 22:35:23 12° 210° (SSW) 1,883 5.6 -14.5°
Maximum altitude 22:39:23 49° 285° (WNW) 818 4.4 -14.7°
Drops below altitude 10° 22:43:44 10° 1° (N) 2,018 7.4 -14.9°
Sets 22:46:02 0° 7° (N) 2,926 8.4 -15.0°
